Voltar ao catálogo

MEASAT 3A

AtivoComunicaçõesGEO
NORAD 35362·PAYLOAD·🇲🇾 Malaysia

Lançado Jun 21, 2009 de Baikonur Cosmodrome

Loading…

TLE

AtualizadoSource: Space-Track

Época: Sep 14, 2026, 10:33 UTC

1 35362U 09032A   26257.44007337 -.00000119  00000-0  00000-0 0  9995
2 35362   0.0417 326.6930 0001889 213.1886 131.9738  1.00271585  8927

Acompanhe MEASAT 3A em tempo real com AllMySat

Download on the App Store